{"data":{"norad_id":67152,"epoch":"2026-05-25T02:39:58.112928Z","epoch_age_seconds":61348,"freshness":"FRESH","line1":"1 67152U 25301V   26145.11108927  .00003075  00000+0  43213-3 0  9999","line2":"2 67152  51.8964  80.1684 0000867  81.7784 278.3277 14.79932763 25159","mean_motion":14.79932763,"eccentricity":8.67e-5,"inclination_deg":51.8964,"raan_deg":80.1684,"arg_perigee_deg":81.7784,"mean_anomaly_deg":278.3277,"bstar":0.00043213,"rev_number":2515,"period_min":97.301717753781,"perigee_km":628.92881204355,"apogee_km":630.14394260718,"semimajor_km":7007.6733773254,"source":"CELESTRAK","updated_at":"2026-05-25T13:38:06.778229Z"}}